Location: Kott?ru
(16.8227°N, 80.8104°E)
Time: 15:25:23
(UTC+00:00)

Daily predictions for brighter satellites

Satellite Brightness Start Highest point End
(mag) Time Altitude Azimuth Time Altitude Azimuth Time Altitude Azimuth
CZ-2D R/B 3.8 12:20:45 10° SE 12:24:19 37° ENE 12:27:51 10° N
Cosmos 2360 4.2 12:24:03 10° N 12:29:43 68° ENE 12:35:22 10° SSE
SKYMED 2 3.6 12:26:00 10° NNE 12:30:20 85° E 12:34:40 10° S
Cosmos 2084 3.6 12:28:23 10° NNW 12:32:53 80° ENE 12:37:32 10° SSE
Cosmos 1500 3.1 12:30:40 10° N 12:34:22 87° W 12:38:04 10° S
Atlas Centaur 2 3.9 12:32:21 10° WSW 12:34:37 16° SSW 12:36:49 10° S
Sich 1 3.3 12:31:26 10° N 12:35:44 72° W 12:40:04 10° S
Meteor 1-10 Rocket 4.3 12:30:08 10° S 12:35:57 70° E 12:41:40 10° NNE
GPS 2-15 Rocket1 3.2 12:38:26 10° WNW 12:43:05 64° N 12:47:07 13° E
H-2A R/B 3.6 12:41:17 12° ENE 12:43:51 18° E 12:46:49 10° SE
Cosmos 1515 Rocket 3.5 12:40:33 10° S 12:44:57 69° E 12:49:23 10° N
Meteor 2-16 Rocket 4.4 12:39:47 10° N 12:45:51 65° E 12:51:55 10° SSE
Centaur AC-69 2.4 12:42:52 10° W 12:47:16 75° S 12:49:15 14° ESE
Meteor 2-15 Rocket 4.4 12:41:59 10° S 12:48:04 69° E 12:54:08 10° N
Aureole 3 Rocket 3.2 12:47:19 10° SSE 12:50:25 35° E 12:54:15 10° NNE
Genesis I 3.1 12:50:10 10° SSW 12:53:54 66° ESE 12:57:08 14° NNE
CZ-4C R/B 3.8 12:49:53 10° N 12:56:58 31° ENE 13:04:26 10° ESE
CZ-4 R/B 3.6 12:56:35 10° ESE 12:56:50 11° ESE 12:56:50 11° ESE
Cosmos 1697 Rocket 3.7 12:55:31 10° NNW 13:00:54 49° WSW 13:06:17 10° S
Cosmos 1666 2.9 12:59:49 10° N 13:03:29 67° W 13:07:10 10° S
Cosmos 1980 Rocket 2.1 13:00:37 10° NNW 13:06:14 77° ENE 13:11:49 10° SSE
USA 276 1.9 13:05:34 10° NW 13:08:39 75° NE 13:10:42 19° SE
YAOGAN 1 3.7 13:08:15 10° SE 13:10:44 24° E 13:10:44 24° E
Cosmos 2369 4.1 13:06:59 10° NNW 13:12:38 66° WSW 13:18:15 10° S
Cosmos 2266 Rocket 4.1 13:07:03 10° N 13:13:18 55° E 13:19:31 10° SSE
SL-27 R/B 3.1 13:10:16 10° SSE 13:13:12 33° ESE 13:13:12 33° ESE
ARGOS 3.0 13:09:41 10° SSE 13:15:05 74° ENE 13:20:28 10° N
CZ-4 R/B 4.3 13:11:36 10° SSE 13:15:41 74° ENE 13:19:46 10° N
Cosmos 1515 3.6 13:13:55 10° S 13:17:36 58° E 13:18:56 35° NNE
DMSP B5D2-2 4.1 13:14:01 10° N 13:19:15 85° WNW 13:24:30 10° SSW
Cosmos 783 Rocket 4.4 13:18:46 10° S 13:24:00 75° ESE 13:27:18 23° NNE
Cosmos 1633 Rocket 4.3 13:20:10 10° NNW 13:24:18 42° W 13:28:27 10° SSW
Cosmos 1356 Rocket 3.7 13:26:00 45° E 13:26:00 45° E 13:29:57 10° SSE
USA 234 3.8 13:27:32 32° ENE 13:28:47 34° NE 13:34:32 10° NNW
Meteosat 1 Rocket2 3.4 13:25:59 10° W 13:29:53 39° NNW 13:30:23 37° N
H-2A R/B 3.6 13:25:48 10° SSW 13:30:37 36° W 13:35:21 10° NW
Okean O Rocket 2.1 13:29:11 10° S 13:33:33 61° W 13:37:56 10° NNW
Delta 2 Rocket 4.0 13:29:28 10° WSW 13:33:46 44° NNW 13:34:33 39° N
Cosmos 2278 3.7 13:30:19 10° NNW 13:36:00 80° WSW 13:41:38 10° SSE
Cosmos 773 Rocket 3.9 13:32:20 10° SSW 13:37:37 88° W 13:40:13 31° NNE
GPS 2-12 Rocket1 2.8 13:40:35 10° WSW 13:45:03 87° S 13:45:03 87° S
Cosmos 1933 Rocket 3.6 13:48:07 42° NNW 13:49:28 73° W 13:53:47 10° S
Spot 2 4.3 13:47:56 10° SSE 13:52:58 87° ENE 13:55:43 28° N
Aurora 2 Rocket 3.4 13:50:10 10° WNW 13:55:36 85° SSW 13:57:22 53° ESE
Okean 1 4.3 13:52:52 10° S 13:55:37 42° SSW 13:55:37 42° SSW
SWIFT 3.5 13:59:55 10° W 14:03:09 40° SW 14:03:09 40° SW
DNEPR-1 R/B 4.3 14:03:52 10° SSW 14:08:45 59° W 14:08:45 59° W
Cosmos 1553 Rocket 4.0 14:12:17 10° S 14:18:35 77° W 14:18:38 77° WNW
H-2A R/B 4.2 14:18:22 21° NW 14:19:35 23° WNW 14:23:07 10° SW
BREEZE M DEB (TANK) 4.1 14:13:12 10° NW 14:18:21 37° WNW 14:18:21 37° WNW
ATLAS 5 CENTAUR R/B 2.4 14:13:01 10° W 14:18:36 41° W 14:18:36 41° W
CZ-4 R/B 4.0 14:30:49 10° SSW 14:32:49 19° WSW 14:32:49 19° WSW
ATLAS 3B CENTAUR R/B 4.4 14:26:33 10° WNW 14:45:33 57° N 14:46:49 56° NNE
CZ-4C R/B 4.0 14:37:44 10° NW 14:45:39 47° WSW 14:53:52 10° S
Cosmos 2082 Rocket 3.7 22:17:14 30° SE 22:17:14 30° SE 22:20:02 10° SSE
Centaur D-1A AC-31 2.9 22:40:40 27° NE 22:40:40 27° NE 22:44:39 10° E
SJ 16-02 4.1 22:47:09 10° SE 22:50:02 17° E 22:52:56 10° ENE
Envisat 4.5 22:50:15 10° NE 22:54:51 35° E 22:59:28 10° SSE
GPS 2-17 Rocket1 3.9 22:57:13 40° SSE 22:57:13 40° SSE 23:01:24 10° E
GPS 2-18 Rocket1 3.9 23:04:54 51° SE 23:04:54 51° SE 23:07:58 10° ESE
FUSE 4.0 23:07:55 59° NNW 23:07:57 59° NNW 23:13:15 10° ENE
ASTRO E2 2.7 23:14:26 76° SSE 23:14:26 76° SSE 23:18:23 10° ENE
Cosmos 1354 Rocket 3.8 23:09:20 10° SSW 23:14:32 73° WNW 23:19:48 10° N
OAO 3 Rocket 3.8 23:14:00 41° N 23:15:00 47° NNE 23:19:46 10° ESE
Centaur AC-72 3.2 23:13:08 28° WSW 23:16:23 69° SSE 23:27:36 10° E
SJ-12 4.3 23:13:41 10° NNE 23:17:46 65° E 23:21:51 10° S
Cosmos 921 Rocket 4.4 23:14:13 12° N 23:18:04 39° ENE 23:22:16 10° SE
Cosmos 1933 3.6 23:21:59 51° SW 23:21:59 51° SW 23:25:18 10° S
Cosmos 1812 4.3 23:18:10 10° NNE 23:21:41 35° E 23:25:11 10° SSE
YAOGAN 6 2.4 23:24:56 33° N 23:26:26 83° W 23:29:59 10° SSW
Cosmos 1814 Rocket 4.3 23:28:13 40° WNW 23:29:00 43° W 23:33:53 10° S
Meteor 1-26 Rocket 4.1 23:25:17 11° N 23:30:48 78° W 23:36:21 10° S
Cosmos 1570 Rocket 4.1 23:29:08 36° NW 23:30:53 51° W 23:36:00 10° S
Delta 168 4.0 23:30:07 37° WNW 23:32:00 54° N 23:39:22 10° ENE
Cosmos 1151 Rocket 3.9 23:30:35 10° N 23:34:49 50° E 23:39:01 10° SSE
Okean 3 Rocket 3.7 23:33:31 10° SSW 23:37:55 55° W 23:42:21 10° N
Gbstr 26 Del rocket 3.2 23:36:09 28° NNW 23:38:14 66° NE 23:42:58 10° SE
Cosmos 1766 Rocket 3.8 23:34:11 10° SSW 23:38:19 44° W 23:41:53 13° NNW
ARIANE DEB (SYLDA) 4.5 23:30:16 14° W 23:40:27 34° SSW 23:44:43 10° SE
ATLAS 3B R/B 2.6 23:39:57 10° SW 23:46:12 54° WNW 23:52:35 10° NNE
MOS 1-B Rocket 4.3 23:40:41 10° SSE 23:47:37 75° ENE 23:53:36 10° N
SL-4 R/B 2.5 23:48:37 27° NW 23:48:37 27° NW 23:51:15 10° NNE
OAO 2 Rocket 4.2 23:46:55 25° WNW 23:48:46 31° NNW 23:53:21 10° NE
ADEOS 3.9 23:45:14 10° NNE 23:50:25 71° ESE 23:55:37 10° S
H-2A R/B 3.2 23:48:45 10° N 23:52:13 35° WNW 23:55:43 10° SW
Hubble Space Telescope 0.9 23:50:54 26° W 23:53:04 64° SSW 23:57:08 10° SE
